Regional Weather Roundup
Issued by NWS

Home | Current Version | Previous Version | Graphics & Text | Print | Product List | Glossary On
Versions: 1 2 3 4 5 6 7 8 9 10 11 12 13 14 15 16 17 18 19 20 21 22 23 24 25 26 27 28 29 30 31 32 33 34 35 36 37 38 39 40 41 42 43 44 45 46 47 48 49 50
000
ASUS43 KTOP 282308
RWRKS

WEATHER ROUNDUP FOR KANSAS
NATIONAL WEATHER SERVICE GOODLAND KS
600 PM CDT MON JUL 28 2014

NOTE:  "FAIR" INDICATES FEW OR NO CLOUDS BELOW 12,000 FEET WITH NO
SIGNIFICANT WEATHER AND/OR OBSTRUCTIONS TO VISIBILITY.

KSZ001>006-013>018-027>032-041>047-290000-
NORTHWEST KANSAS

CITY           SKY/WX    TMP DP  RH WIND       PRES   REMARKS
GOODLAND       SUNNY     83  52  34 S18       30.25F
HAYS           SUNNY     88  57  35 SE5       30.19F
HILL CITY      SUNNY     89  55  31 S6        30.18F
RUSSELL        SUNNY     87  56  34 VRB3      30.18F
$$

KSZ061>065-074>080-084>089-290000-
SOUTHWEST KANSAS

CITY           SKY/WX    TMP DP  RH WIND       PRES   REMARKS
DODGE CITY     MOSUNNY   84  55  36 SW13      30.23F
ELKHART          N/A     74  61  64 S10         N/A
GARDEN CITY    MOSUNNY   81  57  43 S15       30.23F
GREAT BEND     SUNNY     84  55  37 S3        30.18F
LIBERAL        PTSUNNY   79  55  44 S15       30.28F
PRATT          SUNNY     86  50  28 CALM      30.21F
$$

KSZ066>073-081>083-090>101-290000-
SOUTHEAST KANSAS

CITY           SKY/WX    TMP DP  RH WIND       PRES   REMARKS
CHANUTE        SUNNY     84  57  39 N10       30.15F
COFFEYVILLE    SUNNY     86  56  35 N10       30.13F
HUTCHINSON     SUNNY     88  57  34 N8        30.18F
MEDICINE LODGE   N/A     88  56  33 N3        30.17F
NEWTON         SUNNY     84  54  34 N8        30.22F
PARSONS        SUNNY     86  56  35 N10       30.15F
WICHITA INTL   MOSUNNY   87  57  35 N12       30.17F
WICHITA JABRA  SUNNY     88  57  34 NE9       30.17F
WICHITA MCCONL SUNNY     86  54  33 N7        30.17F
WINFIELD       MOSUNNY   88  59  37 N8G17     30.16F
$$

KSZ007>012-019>026-033>040-048>060-102>105-290000-
NORTHEAST KANSAS

CITY           SKY/WX    TMP DP  RH WIND       PRES   REMARKS
CONCORDIA      SUNNY     81  57  43 N7        30.20F
EMPORIA        SUNNY     85  51  31 N9        30.16F
LAWRENCE       MOSUNNY   82  59  45 N13       30.16F
MANHATTAN      SUNNY     84  54  35 NE10      30.17F
MARYSVILLE     SUNNY     79  57  47 N10       30.20S
OLATHE IND     SUNNY     80  56  43 N14       30.17F
OLATHE EXE     MOSUNNY   79  57  46 N9        30.16F
SALINA         SUNNY     88  54  31 NE9       30.18F
TOPEKA BILLARD SUNNY     84  57  39 NE8       30.16F
TOPEKA FORBES  SUNNY     84  55  36 NW13      30.16F
$$



USA.gov is the U.S. government's official web portal to all federal, state and local government web resources and services.